TimeCDT,TemperatureF,Dew PointF,Humidity,Sea Level PressureIn,VisibilityMPH,Wind Direction,Wind SpeedMPH,Gust SpeedMPH,PrecipitationIn,Events,Conditions,WindDirDegrees,DateUTC
12:53 AM,73.0,70.0,90,30.22,10.0,NE,3.5,-,N/A,,Clear,50,2013-07-15 05:53:00
1:53 AM,73.0,70.0,90,30.22,9.0,NE,3.5,-,N/A,,Clear,50,2013-07-15 06:53:00
7:53 AM,78.1,73.0,84,30.27,9.0,SSE,3.5,-,N/A,,Scattered Clouds,150,2013-07-15 12:53:00
8:53 AM,81.0,73.9,79,30.27,10.0,South,4.6,-,N/A,,Overcast,170,2013-07-15 13:53:00
9:53 AM,82.9,73.9,74,30.27,10.0,SW,4.6,-,N/A,,Overcast,220,2013-07-15 14:53:00
10:53 AM,84.0,75.0,74,30.28,10.0,South,5.8,-,N/A,,Overcast,170,2013-07-15 15:53:00
11:32 AM,86.0,75.2,70,30.29,10.0,Variable,4.6,-,N/A,,Mostly Cloudy,0,2013-07-15 16:32:00
11:53 AM,86.0,75.0,70,30.27,10.0,SSW,5.8,-,N/A,,Scattered Clouds,210,2013-07-15 16:53:00
12:26 PM,87.8,75.2,66,30.29,10.0,SSE,8.1,-,N/A,,Mostly Cloudy,150,2013-07-15 17:26:00
12:33 PM,87.8,75.2,66,30.29,10.0,SE,6.9,-,N/A,,Scattered Clouds,130,2013-07-15 17:33:00
12:53 PM,87.1,75.0,67,30.27,10.0,Variable,3.5,-,N/A,,Partly Cloudy,0,2013-07-15 17:53:00
1:53 PM,89.1,75.0,63,30.26,10.0,South,8.1,-,N/A,,Scattered Clouds,180,2013-07-15 18:53:00
2:53 PM,89.1,73.9,61,30.25,10.0,South,5.8,-,N/A,,Clear,170,2013-07-15 19:53:00
3:53 PM,90.0,73.0,57,30.24,10.0,South,6.9,-,N/A,,Partly Cloudy,190,2013-07-15 20:53:00
4:53 PM,89.1,72.0,57,30.23,10.0,South,8.1,-,N/A,,Clear,170,2013-07-15 21:53:00
5:53 PM,88.0,73.0,61,30.22,10.0,South,5.8,-,N/A,,Clear,170,2013-07-15 22:53:00
6:53 PM,87.1,73.0,63,30.22,10.0,South,4.6,-,N/A,,Clear,180,2013-07-15 23:53:00
7:53 PM,84.0,73.0,69,30.23,10.0,South,3.5,-,N/A,,Clear,180,2013-07-16 00:53:00
8:53 PM,82.0,72.0,71,30.25,10.0,Calm,Calm,-,N/A,,Clear,0,2013-07-16 01:53:00
9:53 PM,77.0,73.0,88,30.27,10.0,Calm,Calm,-,N/A,,Clear,0,2013-07-16 02:53:00
10:53 PM,79.0,72.0,79,30.27,10.0,South,3.5,-,N/A,,Clear,180,2013-07-16 03:53:00
11:53 PM,75.0,72.0,90,30.28,10.0,Calm,Calm,-,N/A,,Clear,0,2013-07-16 04:53:00